EZY58E LEMG-EGCC

Flight info

Callsign EZY58E
Flight time N/A
Altitude 38000
Route BLN N865 VTB N867 BLV P87 BELEN DCT DIDIG UP87 TERPO UN867 AVANT UM184 HEMEL T420 ELVOS
Aircraft A319/M-SDE3FGHIRWY/LB1

Departure

Time N/A
Airport Málaga-Costa del Sol Airport (LEMG)

Arrival

Time 2026-05-04 13:49
Airport Manchester Airport (EGCC)
Time Latitude Longitude Altitude Speed Heading
2026-05-04 13:08 50.31978 -1.30073 38044 ft 455 kts
2026-05-04 13:08 50.35059 -1.29304 38044 ft 454 kts
2026-05-04 13:09 50.41306 -1.27740 38037 ft 454 kts
2026-05-04 13:09 50.47539 -1.26100 38045 ft 453 kts 13°
2026-05-04 13:10 50.52438 -1.23227 38045 ft 452 kts 29°
2026-05-04 13:10 50.58635 -1.17159 38036 ft 451 kts 33°
2026-05-04 13:11 50.63938 -1.11887 38031 ft 451 kts 33°
2026-05-04 13:11 50.68378 -1.07467 38026 ft 451 kts 33°
2026-05-04 13:12 50.73645 -1.02204 38028 ft 451 kts 33°
2026-05-04 13:12 50.78944 -0.96896 38024 ft 451 kts 33°
2026-05-04 13:13 50.84543 -0.92506 38013 ft 451 kts 18°
2026-05-04 13:13 50.90513 -0.89464 38025 ft 451 kts 18°
2026-05-04 13:14 50.96484 -0.86376 38025 ft 451 kts 18°
2026-05-04 13:14 51.02446 -0.83275 38032 ft 451 kts 18°
2026-05-04 13:15 51.08406 -0.80178 38029 ft 450 kts 18°
2026-05-04 13:15 51.14354 -0.77075 38034 ft 450 kts 18°
2026-05-04 13:16 51.20304 -0.73961 38035 ft 450 kts 18°
2026-05-04 13:16 51.26263 -0.70833 38025 ft 450 kts 19°
2026-05-04 13:17 51.32173 -0.67725 38022 ft 450 kts 19°
2026-05-04 13:17 51.38118 -0.64590 38022 ft 450 kts 18°
2026-05-04 13:18 51.44056 -0.61446 38028 ft 449 kts 19°
2026-05-04 13:18 51.49997 -0.58294 38028 ft 449 kts 19°
2026-05-04 13:19 51.55936 -0.55136 38025 ft 449 kts 19°
2026-05-04 13:19 51.61847 -0.51979 38034 ft 449 kts 19°
2026-05-04 13:20 51.67728 -0.48832 38039 ft 448 kts 19°
2026-05-04 13:20 51.73655 -0.45668 37983 ft 449 kts 17°
2026-05-04 13:20 51.76702 -0.44661 37680 ft 447 kts
2026-05-04 13:21 51.79417 -0.44550 37447 ft 446 kts 355°
2026-05-04 13:21 51.82467 -0.45256 37025 ft 440 kts 345°
2026-05-04 13:21 51.85355 -0.46822 36513 ft 436 kts 334°
2026-05-04 13:21 51.88008 -0.49152 36009 ft 432 kts 328°
2026-05-04 13:22 51.90573 -0.51658 35493 ft 430 kts 328°
2026-05-04 13:22 51.93137 -0.54166 34972 ft 428 kts 328°
2026-05-04 13:22 51.95692 -0.56663 34459 ft 427 kts 328°
2026-05-04 13:22 51.98194 -0.59108 33953 ft 425 kts 328°
2026-05-04 13:23 52.00719 -0.61574 33423 ft 422 kts 328°
2026-05-04 13:23 52.03224 -0.64021 32945 ft 418 kts 327°
2026-05-04 13:23 52.05704 -0.66453 32459 ft 414 kts 327°
2026-05-04 13:23 52.08161 -0.68866 31983 ft 411 kts 327°
2026-05-04 13:24 52.10605 -0.71269 31522 ft 407 kts 327°
2026-05-04 13:24 52.13021 -0.73648 31064 ft 404 kts 326°
2026-05-04 13:24 52.15418 -0.76012 30619 ft 401 kts 326°
2026-05-04 13:25 52.20154 -0.80696 29714 ft 395 kts 326°
2026-05-04 13:25 52.22488 -0.83009 29307 ft 391 kts 326°
2026-05-04 13:25 52.24803 -0.85304 28899 ft 387 kts 326°
2026-05-04 13:25 52.27091 -0.87575 28508 ft 383 kts 326°
2026-05-04 13:26 52.29356 -0.89820 28120 ft 379 kts 326°
2026-05-04 13:26 52.31570 -0.92014 27730 ft 375 kts 326°
2026-05-04 13:26 52.33791 -0.94219 27342 ft 371 kts 326°
2026-05-04 13:26 52.36017 -0.96439 26940 ft 367 kts 326°
2026-05-04 13:27 52.38158 -0.98583 26546 ft 364 kts 326°
2026-05-04 13:27 52.40312 -1.00742 26147 ft 361 kts 327°
2026-05-04 13:27 52.42442 -1.02880 25735 ft 358 kts 327°
2026-05-04 13:27 52.44561 -1.05007 25312 ft 355 kts 327°
2026-05-04 13:28 52.46664 -1.07115 24897 ft 353 kts 327°
2026-05-04 13:28 52.48756 -1.09211 24466 ft 351 kts 327°
2026-05-04 13:28 52.50836 -1.11300 24032 ft 350 kts 326°
2026-05-04 13:28 52.52904 -1.13383 23597 ft 348 kts 327°
2026-05-04 13:29 52.54971 -1.15470 23112 ft 347 kts 327°
2026-05-04 13:29 52.57019 -1.17540 22687 ft 344 kts 327°
2026-05-04 13:29 52.59052 -1.19590 22267 ft 341 kts 327°
2026-05-04 13:29 52.61069 -1.21623 21850 ft 339 kts 327°
2026-05-04 13:30 52.63072 -1.23640 21438 ft 337 kts 327°
2026-05-04 13:30 52.65059 -1.25647 21036 ft 335 kts 327°
2026-05-04 13:30 52.67037 -1.27650 20632 ft 333 kts 327°
2026-05-04 13:30 52.68980 -1.29622 20236 ft 331 kts 327°
2026-05-04 13:31 52.70941 -1.31615 19836 ft 333 kts 327°
2026-05-04 13:31 52.72924 -1.33631 19412 ft 335 kts 327°
2026-05-04 13:31 52.74908 -1.35649 19048 ft 334 kts 327°
2026-05-04 13:31 52.76892 -1.37671 18634 ft 334 kts 327°
2026-05-04 13:32 52.78865 -1.39689 18188 ft 334 kts 326°
2026-05-04 13:32 52.80833 -1.41706 17756 ft 332 kts 326°
2026-05-04 13:32 52.82791 -1.43715 17342 ft 330 kts 326°
2026-05-04 13:32 52.84743 -1.45718 16928 ft 329 kts 326°
2026-05-04 13:33 52.86685 -1.47710 16516 ft 328 kts 326°
2026-05-04 13:33 52.88618 -1.49697 16101 ft 326 kts 326°
2026-05-04 13:33 52.90541 -1.51677 15707 ft 325 kts 327°
2026-05-04 13:33 52.92462 -1.53649 15298 ft 324 kts 327°
2026-05-04 13:34 52.94379 -1.55618 14893 ft 323 kts 327°
2026-05-04 13:34 52.96265 -1.57555 14502 ft 323 kts 327°
2026-05-04 13:34 52.98195 -1.59542 14084 ft 322 kts 327°
2026-05-04 13:34 53.00072 -1.61482 13667 ft 322 kts 327°
2026-05-04 13:35 53.01966 -1.63448 13251 ft 320 kts 327°
2026-05-04 13:35 53.05612 -1.67551 12462 ft 313 kts 315°
2026-05-04 13:35 53.07063 -1.70218 12071 ft 310 kts 309°
2026-05-04 13:36 53.08459 -1.72930 11682 ft 307 kts 309°
2026-05-04 13:36 53.09848 -1.75617 11303 ft 305 kts 309°
2026-05-04 13:36 53.11226 -1.78285 10937 ft 302 kts 309°
2026-05-04 13:36 53.12573 -1.80891 10758 ft 293 kts 309°
2026-05-04 13:37 53.13897 -1.83458 10403 ft 291 kts 309°
2026-05-04 13:37 53.15211 -1.86011 10036 ft 290 kts 309°
2026-05-04 13:37 53.16515 -1.88550 9644 ft 288 kts 309°
2026-05-04 13:37 53.17391 -1.90260 9366 ft 287 kts 309°
2026-05-04 13:38 53.19095 -1.93595 8844 ft 283 kts 309°
2026-05-04 13:38 53.20376 -1.96100 8437 ft 282 kts 309°
2026-05-04 13:38 53.21623 -1.98535 8297 ft 270 kts 309°
2026-05-04 13:38 53.22786 -2.00914 8179 ft 259 kts 302°
2026-05-04 13:39 53.23527 -2.03597 8028 ft 254 kts 285°
2026-05-04 13:39 53.23752 -2.06516 7645 ft 254 kts 268°
2026-05-04 13:39 53.23642 -2.09451 7272 ft 253 kts 266°
2026-05-04 13:39 53.23531 -2.12378 6902 ft 252 kts 266°
2026-05-04 13:40 53.23391 -2.15262 6539 ft 254 kts 259°
2026-05-04 13:40 53.22676 -2.18041 6052 ft 268 kts 238°
2026-05-04 13:40 53.21631 -2.20668 5394 ft 275 kts 236°
2026-05-04 13:40 53.20534 -2.23318 4752 ft 280 kts 235°
2026-05-04 13:41 53.19412 -2.26005 4096 ft 284 kts 235°
2026-05-04 13:41 53.18276 -2.28722 3461 ft 287 kts 235°
2026-05-04 13:41 53.17138 -2.31450 3054 ft 281 kts 235°
2026-05-04 13:42 53.15073 -2.36489 2992 ft 243 kts 241°
2026-05-04 13:42 53.14709 -2.39099 2998 ft 229 kts 275°
2026-05-04 13:42 53.15198 -2.41586 3008 ft 228 kts 297°
2026-05-04 13:42 53.15966 -2.43892 3003 ft 227 kts 300°
2026-05-04 13:43 53.16757 -2.46168 3000 ft 227 kts 300°
2026-05-04 13:43 53.17543 -2.48415 2993 ft 218 kts 301°
2026-05-04 13:43 53.18494 -2.50250 2996 ft 202 kts 318°
2026-05-04 13:43 53.19528 -2.51734 2997 ft 192 kts 320°
2026-05-04 13:44 53.20602 -2.53006 3002 ft 188 kts 337°
2026-05-04 13:44 53.21882 -2.53238 3007 ft 188 kts 13°
2026-05-04 13:44 53.22973 -2.52100 3007 ft 188 kts 49°
2026-05-04 13:44 53.23795 -2.50414 3002 ft 187 kts 51°
2026-05-04 13:45 53.24608 -2.48739 2886 ft 181 kts 51°
2026-05-04 13:45 53.25363 -2.47189 2698 ft 161 kts 51°
2026-05-04 13:45 53.26022 -2.45839 2497 ft 144 kts 51°
2026-05-04 13:45 53.26633 -2.44584 2306 ft 136 kts 51°
2026-05-04 13:46 53.27222 -2.43375 2127 ft 133 kts 51°
2026-05-04 13:46 53.27800 -2.42186 1951 ft 131 kts 51°
2026-05-04 13:46 53.28376 -2.41004 1774 ft 131 kts 51°
2026-05-04 13:46 53.28946 -2.39825 1588 ft 130 kts 51°
2026-05-04 13:47 53.29513 -2.38645 1405 ft 130 kts 52°
2026-05-04 13:47 53.30083 -2.37472 1218 ft 129 kts 51°
2026-05-04 13:47 53.30653 -2.36309 1059 ft 130 kts 51°
2026-05-04 13:47 53.31227 -2.35136 850 ft 130 kts 52°
2026-05-04 13:48 53.31796 -2.33950 677 ft 131 kts 52°
2026-05-04 13:48 53.32370 -2.32763 511 ft 131 kts 52°
2026-05-04 13:48 53.32947 -2.31578 323 ft 131 kts 52°
2026-05-04 13:48 53.33505 -2.30427 230 ft 117 kts 51°
2026-05-04 13:49 53.33912 -2.29586 228 ft 68 kts 51°
2026-05-04 13:49 53.34178 -2.29038 231 ft 57 kts 51°
2026-05-04 13:49 53.34448 -2.28581 227 ft 54 kts 28°
2026-05-04 13:49 53.34688 -2.28416 231 ft 28 kts 24°
2026-05-04 13:50 53.34819 -2.28179 231 ft 26 kts 51°
2026-05-04 13:50 53.34873 -2.28065 229 ft 12 kts 52°
2026-05-04 13:50 53.34930 -2.27957 230 ft 12 kts 43°
2026-05-04 13:50 53.34983 -2.27838 229 ft 14 kts 49°
2026-05-04 13:51 53.35044 -2.27712 231 ft 13 kts 51°
2026-05-04 13:51 53.35105 -2.27586 234 ft 16 kts 52°
2026-05-04 13:51 53.35184 -2.27424 237 ft 19 kts 51°
2026-05-04 13:51 53.35271 -2.27243 239 ft 18 kts 51°
2026-05-04 13:52 53.35437 -2.27274 247 ft 12 kts 321°
2026-05-04 13:52 53.35502 -2.27361 249 ft 12 kts 321°
2026-05-04 13:52 53.35576 -2.27462 245 ft 11 kts 321°
2026-05-04 13:53 53.35603 -2.27498 245 ft 4 kts 322°
2026-05-04 13:53 53.35623 -2.27524 246 ft 3 kts 321°
2026-05-04 13:53 53.35638 -2.27545 246 ft 3 kts 320°
2026-05-04 13:54 53.35691 -2.27614 247 ft 6 kts 329°
2026-05-04 13:54 53.35728 -2.27638 249 ft 6 kts 341°
2026-05-04 13:54 53.35785 -2.27682 251 ft 6 kts 320°
2026-05-04 13:55 53.35826 -2.27757 252 ft 12 kts 311°
2026-05-04 13:55 53.35980 -2.27886 255 ft 11 kts 320°
2026-05-04 13:55 53.36036 -2.27965 255 ft 10 kts 320°
2026-05-04 13:56 53.36084 -2.28033 255 ft 9 kts 318°
2026-05-04 13:56 53.36132 -2.28110 255 ft 10 kts 315°
2026-05-04 13:56 53.36232 -2.28110 255 ft 9 kts 33°
2026-05-04 13:57 53.36284 -2.28064 255 ft 8 kts 18°
2026-05-04 13:57 53.36329 -2.28032 255 ft 7 kts 34°
2026-05-04 13:58 53.36443 -2.27953 255 ft 7 kts 320°
2026-05-04 13:58 53.36531 -2.28042 255 ft 1 kts 14°
2026-05-04 13:58 53.36535 -2.28038 255 ft 0 kts 31°
2026-05-04 13:59 53.36537 -2.28031 255 ft 1 kts 47°
2026-05-04 13:59 53.36540 -2.28026 255 ft 0 kts 47°
2026-05-04 13:59 53.36546 -2.28017 255 ft 3 kts 46°
2026-05-04 14:00 53.36563 -2.27987 255 ft 0 kts 45°
2026-05-04 14:00 53.36563 -2.27988 255 ft 0 kts 45°
2026-05-04 14:01 53.36564 -2.27987 255 ft 0 kts 37°
2026-05-04 14:01 53.36566 -2.27986 255 ft 0 kts 26°
2026-05-04 14:01 53.36574 -2.27987 255 ft 1 kts
2026-05-04 14:02 53.36585 -2.27976 255 ft 1 kts 41°
2026-05-04 14:02 53.36585 -2.27975 255 ft 1 kts 43°
2026-05-04 14:02 53.36587 -2.27972 255 ft 0 kts 44°
2026-05-04 14:24 53.36583 -2.27980 255 ft 0 kts 45°
2026-05-04 14:24 53.36583 -2.27979 255 ft 0 kts 45°